[[{"header":{"parameterUnit":"m.s-1","parameterCategory":1,"la1":30.2991,"la2":30.254,"lo1":-89.0895,"lo2":-89.0444,"dx":0.0017,"dy":0.0017,"nx":28,"ny":28,"refTime":"2022-11-05T15:00:00:Z","depth":0,"parameterNumber":2,"parameterNumberName":"U-component_of_WINDS"},"data":[0,0,0,0,0,0,0,0,0,0,0,0,0,0,0,0,0,0,0,0,0,0,0,0,0,0,0,0,0,0,0,0,0,0,0,0,0,0,0,0,0,0,0,0,0,0,0,0,0,0,0,0,0,0,0,0,0,0,-4.1353,-4.1354,0,-4.141,-4.1411,-4.1412,-4.1396,-4.1395,-4.1394,-4.1393,-4.145,-4.1453,-4.1455,0,0,0,0,0,0,0,0,0,0,0,0,0,-4.123,-4.1232,-4.1353,-4.1354,-4.1354,-4.141,-4.1411,-4.1412,-4.1396,-4.1395,-4.1394,-4.1392,-4.1449,-4.1452,-4.1456,0,0,0,0,0,0,0,0,0,0,0,0,0,-4.1285,-4.1233,-4.1353,-4.1354,-4.1354,-4.141,-4.1411,-4.1412,-4.1397,-4.1395,-4.1393,-4.1392,-4.1448,-4.1452,-4.1456,-4.1515,0,0,-4.1468,-4.147,0,0,0,0,0,0,0,0,-4.1282,-4.1289,-4.1353,-4.1354,-4.1354,-4.1394,-4.1389,-4.1446,-4.1397,-4.1381,-4.1393,-4.1391,-4.1433,-4.1438,-4.1453,-4.1517,-4.152,-4.1468,-4.1471,-4.1472,-4.1473,0,0,0,0,0,0,0,-4.1278,-4.1287,-4.1376,-4.1354,-4.1355,-4.1351,-4.1357,-4.14,-4.1416,-4.1382,-4.1381,-4.1388,-4.1433,-4.1449,-4.1454,-4.1521,-4.1468,-4.1472,-4.1474,-4.1476,-4.1636,-4.1638,0,0,0,0,0,0,-4.1274,-4.1284,-4.1374,-4.1377,-4.1313,-4.1355,-4.1361,-4.1383,-4.1415,-4.1418,-4.1389,-4.1387,-4.1443,-4.1449,-4.1456,-4.1526,-4.1472,-4.1476,-4.1478,-4.1634,-4.1637,-4.1639,0,0,0,0,0,0,-4.1271,-4.1282,-4.1372,-4.133,-4.1342,-4.1358,-4.1383,-4.1385,-4.1401,-4.1421,-4.1424,-4.1402,-4.1442,-4.145,-4.15,-4.1528,-4.1478,-4.1481,-4.1632,-4.1635,-4.1638,-4.1667,0,0,0,0,0,0,-4.1268,-4.1281,-4.1303,-4.1331,-4.1344,-4.1415,-4.1385,-4.1388,-4.1408,-4.1405,-4.1434,-4.1437,-4.1441,-4.1494,-4.1504,-4.1532,-4.1484,-4.163,-4.1633,-4.1637,-4.1663,-4.167,-4.1676,0,0,0,0,0,-4.1263,-4.1309,-4.1304,-4.1315,-4.1372,-4.1417,-4.1424,-4.1428,-4.141,-4.1433,-4.1446,-4.1436,-4.1524,-4.15,-4.151,-4.154,-4.1628,-4.1632,-4.1637,-4.166,-4.1669,-4.1676,0,0,0,0,0,0,-4.1283,-4.1312,-4.1308,-4.1364,-4.1388,-4.1414,-4.1442,-4.1437,-4.1466,-4.1463,-4.1467,-4.1473,-4.1524,-4.1538,-4.151,-4.1598,-4.1573,-4.158,-4.1587,-4.1596,-4.1602,-4.1597,-4.1488,0,0,0,0,0,-4.1294,-4.1328,-4.1352,-4.1399,-4.1411,-4.1425,-4.1445,-4.1446,-4.1471,-4.1481,-4.1497,-4.1522,-4.1555,-4.1576,-4.1608,-4.1666,-4.1672,-4.1692,-4.1698,-4.1703,-4.1708,-4.174,-4.1749,-4.1653,-4.1653,-4.1653,0,0,-4.1317,-4.1337,-4.1358,-4.1403,-4.1422,-4.1457,-4.1433,-4.1471,-4.1497,-4.1487,-4.1534,-4.1548,-4.1575,-4.163,-4.1654,-4.1642,-4.1737,-4.1709,-4.1713,-4.1715,-4.1745,-4.1754,-4.1762,-4.1656,-4.1656,-4.1655,0,0,-4.1375,-4.1395,-4.1436,-4.1456,-4.1485,-4.1494,-4.1504,-4.1531,-4.154,-4.1588,-4.1581,-4.1612,-4.1669,-4.1689,-4.1707,-4.1775,-4.1767,-4.1785,-4.1818,-4.1849,-4.1856,-4.1863,-4.1886,-4.1895,-4.1791,-4.1791,-4.1791,0,-4.14,-4.1452,-4.1458,-4.1496,-4.1516,-4.151,-4.1551,-4.157,-4.1608,-4.1622,-4.1608,-4.168,-4.1698,-4.1757,-4.1774,-4.1789,-4.18,-4.1781,-4.1855,-4.1861,-4.1868,-4.189,-4.1899,-4.1793,-4.1793,-4.1792,-4.1792,0,-4.148,-4.1517,-4.1546,-4.1583,-4.1607,-4.1647,-4.1659,-4.1682,-4.1683,-4.1693,-4.1743,-4.1765,-4.18,-4.1815,-4.1815,-4.1874,-4.1866,-4.1854,-4.1828,-4.1879,-4.1899,-4.1908,-4.1796,-4.1795,-4.1794,-4.1794,0,0,-4.155,-4.1591,-4.1602,-4.1619,-4.1652,-4.168,-4.172,-4.1756,-4.1775,-4.1803,-4.1836,-4.1885,-4.1874,-4.1894,-4.1897,-4.1924,-4.1976,-4.1909,-4.191,-4.1919,-4.2041,-4.2049,-4.2059,-4.1972,-4.1974,-4.1975,-4.2039,0,-4.1611,-4.1681,-4.1688,-4.1751,-4.1784,-4.178,-4.1815,-4.1838,-4.185,-4.188,-4.1893,-4.1927,-4.1911,-4.1923,-4.195,-4.1964,-4.2,-4.196,-4.2002,-4.2004,-4.1993,-4.207,-4.2078,-4.2136,-4.2047,-4.2048,-4.2049,0,-4.169,-4.172,-4.1786,-4.1814,-4.1829,-4.186,-4.1893,-4.1923,-4.195,-4.1957,-4.198,-4.198,-4.2021,-4.1996,-4.2052,-4.2025,-4.2043,-4.2053,-4.2055,-4.2057,-4.2028,-4.2073,-4.2155,-4.2163,-4.2063,-4.2062,-4.2061,0,-4.1733,-4.179,-4.1837,-4.1852,-4.1886,-4.1908,-4.1924,-4.195,-4.1971,-4.2001,-4.2014,-4.2048,-4.2067,-4.2093,-4.2102,-4.2083,-4.2158,-4.2134,-4.2164,-4.2164,-4.2178,-4.2177,-4.2263,-4.2193,-4.2193,-4.2193,-4.2193,0,-4.1799,-4.1839,-4.1857,-4.1885,-4.1931,-4.1939,-4.1984,-4.1998,-4.2021,-4.2052,-4.2051,-4.2081,-4.2092,-4.2123,-4.2131,-4.2176,-4.2185,-4.2191,-4.2192,-4.219,-4.2189,-4.22,-4.2195,-4.2195,-4.2195,-4.2194,-4.2194,0,-4.1853,-4.1867,-4.1918,-4.1947,-4.1955,-4.1987,-4.2012,-4.204,-4.2052,-4.2092,-4.2102,-4.212,-4.2157,-4.2169,-4.2214,-4.2219,-4.2272,-4.227,-4.2262,-4.2262,-4.2291,-4.2288,-4.2386,-4.2399,-4.2322,-4.2323,-4.2324,0,-4.1893,-4.1924,-4.1957,-4.1978,-4.1995,-4.2029,-4.2051,-4.2061,-4.2083,-4.2118,-4.2141,-4.2178,-4.2208,-4.2267,-4.2285,-4.2319,-4.2317,-4.235,-4.2322,-4.2319,-4.2316,-4.2313,-4.2316,-4.2354,-4.2355,-4.2355,-4.2356,0,-4.1963,-4.1968,-4.2,-4.2034,-4.206,-4.2088,-4.2114,-4.2132,-4.2146,-4.2172,-4.221,-4.2233,-4.2279,-4.2315,-4.2351,-4.2367,-4.2363,-4.2365,-4.2373,-4.237,-4.2364,-4.2366,-4.2274,-4.2362,-4.2361,-4.2361,-4.236,-4.236,-4.201,-4.2038,-4.2065,-4.21,-4.2122,-4.2147,-4.2174,-4.219,-4.2222,-4.226,-4.2265,-4.2305,-4.2333,-4.238,-4.2398,-4.243,-4.2421,-4.2434,-4.2436,-4.2439,-4.2441,-4.2361,-4.2437,-4.2437,-4.2436,-4.2436,-4.2436,0,-4.2078,-4.2096,-4.2129,-4.2166,-4.2194,-4.219,-4.2219,-4.2243,-4.2279,-4.2305,-4.2335,-4.2378,-4.2414,-4.2435,-4.2471,-4.2493,-4.2492,-4.2501,-4.2499,-4.2503,-4.2447,-4.2436,-4.2501,-4.2501,-4.2501,-4.2501,-4.2501,-4.2501,-4.2117,-4.2162,-4.2171,-4.2228,-4.2246,-4.2285,-4.2303,-4.2326,-4.2347,-4.2396,-4.2425,-4.2439,-4.2463,-4.2501,-4.2534,-4.2539,-4.2551,-4.2562,-4.2566,-4.2513,-4.2506,-4.25,-4.2489,-4.2565,-4.2565,-4.2618,-4.2619,-4.2619]},{"header":{"parameterUnit":"m.s-1","parameterCategory":1,"la1":30.2991,"la2":30.254,"lo1":-89.0895,"lo2":-89.0444,"dx":0.0017,"dy":0.0017,"nx":28,"ny":28,"refTime":"2022-11-05T15:00:00:Z","depth":0,"parameterNumber":3,"parameterNumberName":"V-component_of_WINDS"},"data":[0,0,0,0,0,0,0,0,0,0,0,0,0,0,0,0,0,0,0,0,0,0,0,0,0,0,0,0,0,0,0,0,0,0,0,0,0,0,0,0,0,0,0,0,0,0,0,0,0,0,0,0,0,0,0,0,0,0,3.6852,3.6853,0,3.6948,3.6949,3.695,3.6955,3.6954,3.6953,3.6952,3.7049,3.7052,3.7056,0,0,0,0,0,0,0,0,0,0,0,0,0,3.6678,3.6681,3.6852,3.6854,3.6855,3.6947,3.6949,3.695,3.6956,3.6954,3.6953,3.6952,3.7048,3.7052,3.7056,0,0,0,0,0,0,0,0,0,0,0,0,0,3.6761,3.6682,3.6852,3.6869,3.6871,3.6947,3.6949,3.695,3.6956,3.6954,3.6953,3.6951,3.7046,3.7052,3.7057,3.7122,0,0,3.7073,3.7076,0,0,0,0,0,0,0,0,3.6757,3.6768,3.6865,3.6868,3.6871,3.6938,3.6923,3.7008,3.6956,3.6924,3.6952,3.695,3.7013,3.7021,3.7043,3.7127,3.7131,3.7074,3.7077,3.7079,3.7081,0,0,0,0,0,0,0,3.6751,3.6764,3.689,3.6867,3.687,3.6872,3.6882,3.6939,3.6976,3.6926,3.6927,3.6938,3.7014,3.7037,3.7045,3.7132,3.7074,3.7078,3.7082,3.7084,3.728,3.7282,0,0,0,0,0,0,3.6742,3.6759,3.6887,3.6893,3.6809,3.6877,3.6888,3.6918,3.6976,3.6983,3.694,3.6938,3.7029,3.7039,3.7048,3.7132,3.7079,3.7084,3.7087,3.7278,3.7281,3.7283,0,0,0,0,0,0,3.6738,3.6753,3.6883,3.6826,3.6843,3.6881,3.6915,3.6921,3.6944,3.6986,3.6993,3.6956,3.7028,3.7041,3.7105,3.7135,3.7087,3.7092,3.7276,3.7279,3.7282,3.7298,0,0,0,0,0,0,3.6733,3.6752,3.6776,3.6827,3.6846,3.6937,3.6917,3.6924,3.6953,3.6952,3.7003,3.701,3.7028,3.7097,3.711,3.7142,3.7096,3.7273,3.7277,3.7281,3.7295,3.7301,3.7306,0,0,0,0,0,3.6727,3.6776,3.6777,3.6793,3.6877,3.6939,3.695,3.697,3.6955,3.6981,3.7009,3.7008,3.713,3.7104,3.7119,3.7152,3.7272,3.7276,3.7281,3.7292,3.73,3.7306,0,0,0,0,0,0,3.6726,3.6782,3.6785,3.6851,3.6891,3.694,3.6973,3.6977,3.7021,3.7018,3.7041,3.7052,3.7117,3.7141,3.711,3.7221,3.7199,3.7207,3.7203,3.721,3.7216,3.7209,3.71,0,0,0,0,0,3.6734,3.678,3.6826,3.6881,3.69,3.6933,3.6961,3.6973,3.7015,3.7031,3.7063,3.7103,3.7151,3.7182,3.7228,3.7298,3.7311,3.7329,3.7335,3.7339,3.7346,3.7389,3.7398,3.7298,3.7298,3.7297,0,0,3.675,3.6787,3.6814,3.6882,3.6913,3.6961,3.6947,3.6997,3.7033,3.7038,3.7102,3.7127,3.7174,3.7243,3.7275,3.7265,3.7377,3.7345,3.7348,3.7353,3.7394,3.7404,3.7412,3.7301,3.73,3.73,0,0,3.6805,3.6836,3.6887,3.692,3.6969,3.6991,3.7003,3.7053,3.7071,3.7135,3.7141,3.7185,3.7265,3.73,3.7328,3.74,3.7402,3.7414,3.7445,3.7486,3.7494,3.7501,3.753,3.7539,3.7421,3.7421,3.7421,0,3.6819,3.689,3.6912,3.6963,3.6994,3.7003,3.7056,3.7086,3.7148,3.717,3.7158,3.7263,3.7294,3.7373,3.7391,3.7412,3.7429,3.7409,3.7491,3.7499,3.7506,3.7533,3.7543,3.7422,3.7422,3.7422,3.7422,0,3.6907,3.6957,3.6992,3.7053,3.7088,3.7139,3.717,3.7203,3.7213,3.7237,3.7305,3.7344,3.74,3.7419,3.7429,3.7501,3.7494,3.7486,3.7465,3.7516,3.7543,3.7553,3.7424,3.7423,3.7423,3.7423,0,0,3.6961,3.7037,3.7049,3.7079,3.7135,3.7175,3.7228,3.7284,3.7313,3.7356,3.7403,3.7473,3.7468,3.75,3.7514,3.755,3.7609,3.7539,3.7541,3.7553,3.7694,3.7701,3.7712,3.7611,3.7613,3.7615,3.7691,0,3.7024,3.7119,3.7142,3.7224,3.7272,3.7283,3.733,3.7371,3.7396,3.7441,3.7469,3.7519,3.7507,3.7527,3.7564,3.7594,3.7638,3.7589,3.7657,3.7659,3.7646,3.7725,3.7731,3.7801,3.7701,3.7703,3.7704,0,3.7109,3.7156,3.7243,3.7297,3.7318,3.736,3.7415,3.7458,3.7505,3.7521,3.7559,3.7571,3.7629,3.7605,3.7687,3.7653,3.7682,3.7702,3.7705,3.7713,3.7685,3.7737,3.7824,3.7835,3.772,3.7719,3.7718,0,3.7143,3.7228,3.7292,3.7317,3.7381,3.7411,3.7439,3.7485,3.7518,3.7567,3.7589,3.7643,3.7673,3.7715,3.7742,3.7722,3.7823,3.78,3.7839,3.7839,3.786,3.7859,3.7955,3.7877,3.7877,3.7876,3.7876,0,3.7211,3.7265,3.7309,3.7349,3.7411,3.7437,3.7497,3.7526,3.7567,3.7614,3.7627,3.767,3.7702,3.7751,3.7772,3.7839,3.7851,3.7867,3.7872,3.7867,3.7865,3.7887,3.7883,3.7879,3.7879,3.7878,3.7878,0,3.726,3.7291,3.7363,3.7419,3.7434,3.7477,3.7526,3.7566,3.7592,3.7652,3.7667,3.7708,3.7767,3.7798,3.787,3.7885,3.796,3.7962,3.7944,3.7947,3.7985,3.7982,3.8099,3.8117,3.8026,3.8027,3.8027,0,3.7302,3.7344,3.7405,3.7438,3.7467,3.7519,3.7554,3.7583,3.7619,3.7679,3.7712,3.7771,3.782,3.7914,3.7951,3.8007,3.8012,3.8049,3.802,3.8015,3.8015,3.8013,3.8019,3.8054,3.8055,3.8056,3.8056,0,3.7374,3.7388,3.7438,3.7495,3.7537,3.7583,3.7628,3.7654,3.7691,3.7731,3.7792,3.783,3.7906,3.7966,3.8026,3.8056,3.8063,3.8065,3.8078,3.8073,3.8062,3.8071,3.796,3.8062,3.8062,3.8061,3.8061,3.8061,3.7422,3.7461,3.7512,3.7568,3.7606,3.7649,3.769,3.7723,3.7774,3.7839,3.7853,3.7918,3.7968,3.805,3.8082,3.8134,3.8127,3.8144,3.8149,3.8153,3.8156,3.8053,3.8145,3.8145,3.8145,3.8145,3.8145,0,3.7497,3.7531,3.7582,3.7647,3.7692,3.7696,3.7747,3.7785,3.7842,3.7888,3.7937,3.8009,3.8068,3.8111,3.8172,3.8206,3.8211,3.8221,3.8219,3.8227,3.8158,3.8142,3.8216,3.8216,3.8216,3.8216,3.8216,3.8216,3.7541,3.7609,3.763,3.7718,3.7752,3.7816,3.7845,3.7886,3.7924,3.8004,3.8053,3.8081,3.8127,3.8192,3.8248,3.8259,3.8282,3.8292,3.8304,3.8239,3.8231,3.8224,3.8209,3.8296,3.8296,3.8369,3.8369,3.837]}]]